Temp
64 60 53 55 56 55 54 52 52 58 58 51 52 54 59 57 51 50 50 50 49 48 51 51 51 46 43 43 42 42 41 43 44 44 49 58 63 60 57 56 56 58 60 65
60 53 57 57 56 54 55 53 54 55 55 52 52 51 58 59 51 52 46 47 47 48 48 49 48 48 42 40 39 40 40 41 43 44 48 54 57 54 52 52 50 50 53 56
56 55 58 56 56 53 55 51 50 48 53 56 52 52 51 54 53 50 47 47 48 46 45 46 46 45 45 39 38 38 39 40 41 43 44 48 50 48 47 46 46 47 47 49
57 59 55 55 54 53 49 54 51 48 46 43 51 42 51 49 47 48 49 48 47 45 46 45 44 43 44 42 40 38 38 38 40 41 41 40 39 39 40 42 43 43 44 44
53 54 52 53 52 54 51 55 50 48 45 46 46 42 50 50 47 50 52 50 48 46 45 44 43 43 44 44 43 40 39 38 37 38 39 39 38 38 39 39 39 40 41 42
56 58 55 55 56 54 56 54 55 49 46 37 45 43 47 51 50 53 54 51 48 47 46 46 47 47 45 46 46 45 42 39 38 36 36 36 34 36 36 36 36 37 38 38
56 54 56 56 53 55 55 50 41 39 38 39 44 40 48 52 51 50 53 51 49 47 46 44 44 44 44 44 45 46 44 41 42 40 38 35 36 35 34 34 33 34 35 35
45 42 52 55 52 48 49 47 40 31 35 39 47 39 48 48 48 50 53 52 49 46 46 44 43 43 43 43 44 44 43 42 42 41 39 39 37 39 39 38 37 34 35 33
46 47 54 53 54 52 49 45 48 41 45 36 44 50 43 46 46 46 47 47 46 46 46 44 43 43 42 42 42 43 43 42 42 42 41 39 38 34 36 40 41 39 39 40
52 41 52 53 53 52 49 52 42 43 33 31 43 45 44 47 48 47 46 46 47 47 46 45 44 43 42 42 42 42 43 42 43 44 43 41 39 39 38 38 38 39 40 39
52 47 49 52 49 46 47 46 46 45 42 35 34 42 54 52 53 51 50 51 50 49 46 45 45 44 43 42 41 41 41 41 41 42 43 42 41 40 39 39 39 38 39 39
52 48 40 47 54 51 49 47 48 39 38 41 39 37 56 55 54 53 54 55 54 52 49 48 46 44 42 42 41 40 40 40 40 41 41 41 41 42 40 38 38 39 38 39
51 45 37 45 45 47 44 48 48 47 44 36 35 41 56 54 52 53 52 55 55 52 49 47 45 43 42 41 40 39 39 39 39 40 40 39 39 39 38 38 39 38 38 37
52 45 42 38 43 47 41 45 47 44 35 38 41 45 53 57 57 58 58 56 54 52 48 46 44 43 43 41 39 39 38 38 38 38 37 37 37 37 37 37 37 36 37 37
50 39 42 43 45 45 43 42 43 40 42 36 41 43 51 54 55 55 52 51 52 50 47 44 43 43 41 39 38 37 37 37 37 36 36 34 35 36 36 36 36 36 36 35
47 38 39 35 44 44 39 43 44 44 43 43 44 43 55 54 52 50 50 48 46 47 46 44 42 41 39 39 37 36 36 35 36 35 34 35 35 35 35 35 34 35 35 35
41 38 34 32 41 38 34 43 45 46 47 46 39 49 53 51 49 47 43 43 44 45 45 42 40 39 38 35 35 36 35 35 35 34 34 34 34 34 34 34 35 34 34 35
42 38 35 31 36 26 48 51 48 46 48 49 48 49 51 46 43 42 42 39 41 42 41 40 39 36 35 34 35 35 34 34 33 33 33 33 33 32 33 33 33 33 33 33
47 40 33 31 35 42 47 44 43 41 43 51 48 47 46 41 39 42 37 37 39 40 41 39 38 35 33 32 32 30 30 32 32 31 31 31 32 31 32 31 31 32 32 31
40 43 35 33 28 30 46 42 46 44 38 44 44 43 41 36 31 37 34 35 35 36 36 34 34 32 28 26 27 27 28 30 31 30 30 31 31 30 30 30 30 31 31 30
34 33 30 32 30 39 46 44 45 33 36 41 43 41 36 30 31 30 33 32 33 32 31 32 28 26 26 26 26 26 29 30 30 30 30 30 31 30 30 29 30 30 29 29
36 31 31 33 29 29 45 41 38 39 38 40 39 36 31 29 28 29 29 28 27 26 26 27 25 24 25 25 27 27 28 30 29 29 28 29 30 29 29 28 28 29 28 26
33 42 42 39 41 47 44 44 39 37 36 35 32 33 32 30 28 28 26 26 26 26 25 25 24 24 25 27 28 26 28 28 27 27 27 28 28 28 28 27 26 26 26 25
42 47 37 35 42 44 36 36 33 31 30 31 32 32 31 29 28 26 26 25 24 24 23 24 23 23 25 27 27 26 27 27 25 24 25 25 24 25 26 26 26 25 24 23
39 37 36 37 43 35 31 30 29 29 30 29 29 30 29 28 26 26 24 23 23 23 23 23 22 25 25 25 25 26 26 25 23 23 23 23 24 23 23 25 24 24 25 25
39 36 36 35 27 29 27 28 30 27 26 27 27 25 26 26 24 24 22 23 22 20 22 23 24 23 23 24 24 25 25 24 21 20 22 22 22 22 23 22 22 27 27 28
MSLP
1016.17 1015.88 1016.24 1016.73 1016.86 1016.87 1016.57 1015.99 1015.38 1015.07 1016.07 1016.70 1015.87 1015.29 1015.39 1016.86 1018.68 1019.58 1020.24 1021.03 1021.79 1022.45 1022.72 1023.08 1023.44 1023.87 1023.71 1023.20 1022.37 1021.45 1020.51 1019.57 1018.54 1017.51 1016.26 1014.95 1014.59 1014.95 1015.33 1015.61 1015.66 1015.36 1014.84 1014.02
1016.22 1016.65 1017.43 1017.54 1017.40 1017.11 1016.53 1015.89 1015.38 1015.59 1016.31 1016.52 1015.24 1014.55 1014.78 1015.70 1017.87 1019.13 1020.64 1021.22 1021.83 1022.40 1022.95 1023.46 1023.78 1023.82 1023.75 1023.59 1022.89 1021.96 1021.44 1020.45 1019.38 1018.46 1017.31 1016.25 1015.83 1016.36 1016.82 1017.11 1016.99 1016.91 1016.28 1015.36
1016.56 1017.47 1017.78 1017.73 1017.37 1017.12 1016.37 1016.38 1016.44 1016.60 1016.20 1015.32 1015.22 1013.49 1014.43 1016.08 1017.67 1019.40 1020.63 1021.40 1021.92 1022.40 1023.06 1023.40 1023.74 1023.90 1023.76 1023.68 1023.31 1022.79 1022.19 1021.29 1020.25 1019.35 1018.43 1017.46 1017.44 1017.71 1017.90 1018.08 1017.94 1017.95 1017.68 1016.78
1017.39 1017.93 1018.01 1017.77 1017.49 1017.71 1016.83 1017.19 1017.26 1017.03 1016.68 1015.55 1015.86 1014.48 1014.23 1015.99 1017.44 1018.77 1019.82 1020.83 1021.65 1022.34 1022.97 1023.49 1023.82 1023.96 1023.94 1024.01 1024.06 1023.65 1022.91 1022.23 1021.21 1020.65 1019.82 1019.92 1020.02 1019.97 1020.21 1019.90 1019.52 1019.36 1019.00 1018.35
1017.89 1018.03 1018.10 1017.78 1018.06 1018.22 1017.38 1017.34 1017.26 1017.29 1016.81 1016.26 1015.63 1015.69 1014.40 1015.58 1016.37 1017.39 1018.72 1020.12 1021.26 1022.23 1022.77 1023.44 1023.92 1024.13 1024.15 1024.08 1023.91 1023.94 1023.50 1022.93 1022.54 1022.20 1021.60 1021.17 1021.04 1021.31 1021.26 1021.15 1020.50 1020.23 1020.19 1019.65
1018.34 1018.86 1018.79 1018.57 1018.48 1018.51 1018.10 1017.10 1016.28 1016.90 1016.71 1016.05 1015.45 1015.83 1014.37 1014.83 1015.87 1016.45 1017.84 1019.61 1021.15 1022.17 1022.83 1023.31 1023.79 1023.95 1024.16 1024.15 1023.84 1023.72 1023.59 1023.27 1023.23 1023.18 1022.85 1022.53 1022.23 1022.06 1021.72 1021.77 1021.32 1021.17 1021.38 1020.76
1017.85 1018.36 1018.89 1019.22 1018.42 1018.31 1017.87 1017.04 1016.23 1016.32 1016.05 1015.44 1015.74 1015.84 1014.57 1015.43 1016.46 1017.14 1017.55 1019.17 1020.61 1021.70 1022.52 1023.11 1023.40 1023.85 1024.05 1024.38 1024.12 1023.71 1023.72 1023.72 1023.59 1023.45 1023.46 1023.63 1023.20 1022.74 1022.89 1022.85 1022.60 1022.49 1022.14 1021.76
1018.63 1018.48 1018.88 1019.27 1019.29 1019.17 1018.64 1018.45 1018.03 1017.44 1016.28 1015.70 1015.32 1015.05 1014.78 1016.17 1016.99 1017.57 1017.89 1019.06 1020.33 1021.31 1022.02 1022.74 1023.55 1023.79 1024.02 1024.22 1024.48 1024.14 1024.07 1024.14 1024.21 1024.07 1023.99 1023.98 1023.99 1023.51 1023.34 1023.37 1023.45 1023.61 1023.48 1022.73
1019.46 1018.78 1019.23 1019.59 1019.70 1019.78 1018.79 1018.57 1019.28 1018.59 1017.15 1016.84 1014.81 1014.18 1015.34 1015.90 1016.62 1017.34 1017.86 1018.75 1019.64 1020.51 1021.40 1022.38 1023.24 1023.93 1024.38 1024.50 1024.68 1024.51 1024.48 1024.32 1024.41 1024.62 1024.58 1024.56 1024.49 1024.51 1024.33 1023.97 1023.74 1023.86 1023.78 1023.03
1020.46 1019.98 1019.31 1019.69 1020.14 1020.15 1019.74 1019.72 1019.27 1018.52 1017.37 1015.85 1013.94 1013.40 1013.53 1014.33 1015.15 1016.34 1017.15 1017.85 1018.80 1019.89 1020.96 1021.92 1022.82 1023.58 1024.26 1024.82 1024.91 1025.09 1024.72 1024.69 1024.68 1024.70 1024.87 1024.94 1024.90 1024.81 1024.66 1024.47 1024.30 1024.00 1023.51 1023.49
1021.33 1021.19 1019.64 1019.56 1019.57 1019.69 1019.85 1019.34 1019.34 1018.98 1018.30 1016.91 1014.64 1012.72 1012.61 1013.45 1014.27 1015.17 1016.09 1016.88 1017.74 1018.80 1020.20 1021.40 1022.39 1023.31 1024.08 1024.71 1025.16 1025.31 1025.36 1025.05 1025.10 1025.15 1025.14 1025.11 1025.13 1025.09 1025.06 1024.97 1024.74 1024.53 1024.30 1024.21
1021.75 1021.58 1020.41 1019.10 1019.22 1019.98 1020.03 1019.53 1019.27 1018.79 1018.07 1017.54 1016.59 1014.03 1013.02 1013.40 1014.14 1014.86 1015.33 1015.89 1016.87 1017.92 1019.35 1020.59 1021.88 1023.01 1023.81 1024.46 1025.04 1025.55 1025.68 1025.59 1025.61 1025.52 1025.42 1025.40 1025.43 1025.31 1025.25 1025.33 1025.19 1024.91 1024.56 1024.31
1022.02 1021.67 1020.83 1018.90 1020.08 1020.22 1019.92 1019.68 1019.87 1019.38 1019.26 1017.89 1016.50 1013.36 1012.98 1013.74 1014.25 1014.61 1015.06 1015.42 1016.12 1017.45 1018.90 1020.24 1021.56 1022.68 1023.49 1024.20 1024.94 1025.45 1025.93 1026.03 1026.09 1026.04 1025.83 1025.77 1025.76 1025.81 1025.78 1025.66 1025.39 1025.13 1024.89 1024.72
1022.63 1022.12 1021.44 1020.43 1019.60 1019.91 1019.53 1019.16 1019.31 1019.46 1018.71 1017.11 1015.42 1013.42 1012.86 1012.71 1013.17 1013.59 1014.06 1014.99 1015.98 1017.02 1018.64 1020.16 1021.49 1022.56 1023.48 1024.24 1024.87 1025.49 1025.98 1026.40 1026.56 1026.47 1026.32 1026.25 1026.11 1025.97 1025.92 1025.82 1025.65 1025.43 1025.18 1024.99
1022.68 1022.29 1021.79 1021.01 1020.65 1020.21 1019.41 1018.49 1018.82 1018.46 1017.51 1017.34 1014.37 1014.48 1013.16 1013.38 1013.81 1014.28 1015.18 1015.73 1016.02 1017.15 1018.83 1020.36 1021.58 1022.61 1023.73 1024.70 1025.29 1025.71 1026.22 1026.59 1026.81 1026.84 1026.85 1026.88 1026.73 1026.49 1026.28 1026.03 1025.80 1025.62 1025.49 1025.45
1023.18 1022.67 1022.45 1021.53 1020.59 1019.90 1018.93 1017.36 1017.76 1017.68 1017.08 1016.72 1015.33 1014.38 1014.30 1014.66 1015.16 1015.49 1016.04 1016.78 1017.23 1017.67 1018.86 1020.29 1021.66 1022.83 1023.86 1024.80 1025.47 1026.16 1026.51 1026.85 1027.00 1027.02 1027.07 1027.10 1026.95 1026.73 1026.58 1026.39 1026.18 1025.93 1025.72 1025.51
1023.22 1023.38 1023.19 1021.44 1020.71 1020.25 1018.28 1016.03 1016.21 1016.33 1016.20 1015.83 1015.32 1014.21 1014.58 1015.27 1016.19 1016.96 1017.54 1017.99 1018.14 1018.58 1019.26 1020.52 1021.76 1023.00 1024.29 1025.40 1026.16 1026.36 1026.69 1027.03 1027.10 1027.16 1027.21 1027.21 1027.11 1026.93 1026.75 1026.64 1026.35 1026.07 1025.85 1025.67
1022.63 1023.38 1023.43 1021.96 1020.91 1019.04 1016.16 1015.81 1016.29 1016.08 1015.96 1015.58 1015.43 1015.54 1016.14 1016.82 1017.65 1018.74 1019.43 1019.48 1019.15 1019.34 1020.29 1021.39 1022.61 1023.93 1025.09 1025.86 1026.42 1026.79 1027.02 1027.14 1027.20 1027.21 1027.28 1027.34 1027.26 1027.06 1026.89 1026.73 1026.45 1026.21 1025.96 1025.72
1022.28 1023.01 1023.02 1022.20 1019.92 1016.99 1015.81 1016.30 1016.65 1016.92 1016.17 1015.81 1016.05 1016.75 1017.83 1019.11 1019.08 1019.32 1020.87 1021.09 1020.97 1020.99 1021.48 1022.56 1023.81 1024.93 1026.14 1026.80 1027.21 1027.52 1027.67 1027.50 1027.36 1027.33 1027.40 1027.37 1027.30 1027.17 1026.99 1026.80 1026.59 1026.28 1026.00 1025.77
1022.70 1022.68 1022.82 1021.64 1020.24 1017.20 1015.88 1016.99 1017.51 1017.81 1017.18 1017.66 1018.19 1018.47 1018.88 1019.94 1020.66 1020.94 1021.96 1022.43 1022.69 1023.17 1023.75 1024.44 1025.22 1026.09 1027.05 1027.53 1027.96 1027.97 1027.84 1027.66 1027.50 1027.55 1027.58 1027.50 1027.37 1027.22 1026.95 1026.81 1026.53 1026.21 1026.02 1025.78
1022.26 1022.41 1021.65 1020.89 1019.60 1017.32 1016.71 1017.55 1018.27 1018.79 1019.02 1018.99 1019.38 1019.79 1020.64 1021.48 1022.59 1023.32 1023.60 1023.87 1024.37 1024.81 1025.34 1025.93 1026.72 1027.01 1027.49 1027.97 1028.16 1028.06 1027.85 1027.57 1027.75 1027.81 1027.71 1027.56 1027.32 1027.20 1026.97 1026.73 1026.46 1026.23 1025.90 1025.63
1020.63 1021.06 1020.53 1019.99 1019.16 1018.03 1017.97 1019.07 1019.83 1019.75 1019.66 1020.42 1021.01 1021.53 1022.01 1022.61 1023.34 1024.10 1024.74 1025.32 1025.81 1026.15 1026.66 1026.96 1027.35 1027.74 1028.17 1028.37 1028.25 1028.01 1027.82 1027.87 1027.97 1027.89 1027.75 1027.49 1027.30 1027.08 1026.87 1026.61 1026.37 1026.09 1025.75 1025.42
1020.10 1019.43 1018.70 1018.76 1017.59 1017.76 1019.21 1020.03 1020.95 1021.77 1022.04 1022.04 1022.20 1022.39 1022.85 1023.26 1023.82 1024.70 1025.65 1026.23 1026.55 1026.86 1027.39 1027.73 1027.92 1028.18 1028.44 1028.41 1028.29 1028.19 1028.02 1028.12 1028.05 1027.90 1027.60 1027.36 1027.22 1027.05 1026.78 1026.42 1026.07 1025.88 1025.58 1025.33
1019.71 1020.02 1019.93 1019.84 1018.58 1019.26 1020.68 1021.82 1022.82 1023.36 1023.32 1023.45 1023.54 1023.49 1023.74 1024.05 1024.66 1025.49 1026.32 1026.97 1027.43 1027.74 1028.10 1028.42 1028.52 1028.62 1028.48 1028.46 1028.52 1028.49 1028.42 1028.30 1028.19 1027.93 1027.67 1027.53 1027.31 1026.94 1026.73 1026.53 1026.19 1025.92 1025.68 1025.38
1020.99 1021.17 1021.03 1020.34 1020.11 1021.39 1022.47 1023.39 1024.06 1024.37 1024.56 1024.77 1024.82 1024.70 1024.88 1025.14 1025.69 1026.31 1027.18 1027.83 1028.22 1028.49 1028.78 1028.98 1029.01 1028.73 1028.71 1028.82 1028.71 1028.66 1028.57 1028.42 1028.20 1027.98 1027.78 1027.52 1027.14 1026.94 1026.66 1026.30 1026.05 1025.85 1025.63 1025.37
1021.77 1022.20 1022.43 1022.20 1023.45 1023.83 1024.38 1024.85 1025.34 1025.50 1025.79 1025.95 1025.89 1026.16 1026.48 1026.48 1026.81 1027.53 1028.10 1028.52 1028.89 1029.08 1029.25 1029.06 1029.07 1029.07 1029.06 1028.97 1028.78 1028.68 1028.67 1028.58 1028.39 1028.11 1027.72 1027.55 1027.29 1026.91 1026.51 1026.18 1025.80 1025.58 1025.12 1024.66
Wind_Speed
3 3 8 8 6 6 8 11 13 8 6 7 13 16 13 10 6 7 3 2 4 6 7 9 10 11 13 15 17 17 17 16 12 9 6 6 4 7 8 9 14 14 12 11
5 7 5 4 4 7 10 13 9 4 1 8 14 21 18 8 9 6 3 2 3 6 7 8 10 11 12 13 15 16 16 15 13 9 8 4 5 8 8 8 11 14 14 12
4 5 2 4 6 10 12 7 11 12 16 15 11 10 6 5 6 5 4 1 1 5 8 10 11 12 12 14 15 15 15 15 15 14 10 9 8 8 9 11 11 12 15 15
3 3 3 5 4 8 10 6 9 13 11 5 4 7 4 8 7 8 8 6 2 2 4 6 9 11 12 11 10 13 15 15 15 17 14 17 11 10 9 8 10 10 16 16
5 4 4 5 5 6 7 14 12 9 9 8 6 5 5 3 5 10 10 7 5 3 2 4 6 8 9 9 7 7 11 14 15 15 14 10 12 8 7 8 12 14 13 15
3 1 3 5 7 5 13 13 10 4 4 4 5 3 7 2 2 1 10 9 6 4 2 3 4 5 8 8 9 9 10 10 10 13 14 13 12 10 10 11 9 11 9 11
6 1 1 3 10 5 11 14 3 3 2 4 3 5 6 4 2 3 7 10 9 7 4 2 2 4 6 8 9 9 11 12 12 13 11 11 10 11 11 9 9 9 8 9
6 2 3 5 3 6 7 6 4 6 7 11 7 5 2 3 2 1 3 8 9 8 6 5 3 3 4 5 7 8 10 11 12 11 12 11 13 8 7 8 6 5 5 6
6 3 2 1 2 4 4 3 3 6 7 4 5 7 6 4 5 6 9 11 12 11 10 8 6 4 3 4 5 6 7 9 10 10 9 10 10 10 10 10 7 5 6 7
4 8 2 1 2 2 3 4 3 3 6 8 7 10 8 8 8 11 13 14 13 12 11 10 8 6 5 3 4 3 5 7 8 8 8 8 8 8 6 7 10 10 10 10
4 2 2 5 3 5 3 3 4 4 4 5 8 6 3 4 5 8 11 12 14 14 13 12 9 8 6 4 3 3 4 6 6 7 7 8 7 8 8 8 8 8 8 9
3 5 6 13 3 1 4 6 7 4 3 7 8 10 3 2 3 4 6 8 11 13 13 12 11 9 8 6 4 3 4 5 6 6 7 7 7 8 8 8 9 9 9 10
1 3 7 3 4 2 3 4 9 9 8 14 10 7 3 2 5 8 10 10 8 11 13 12 11 10 9 7 5 4 4 4 5 5 5 6 6 6 7 7 7 8 9 9
3 6 9 10 13 14 19 19 11 12 10 14 19 24 22 19 15 14 13 7 8 10 13 12 11 10 8 7 6 5 5 4 4 5 5 6 7 7 7 7 7 7 8 8
5 7 11 18 18 19 22 24 19 20 22 18 23 22 23 20 20 14 8 8 7 9 11 12 10 8 7 6 5 5 4 4 4 4 5 5 6 7 7 8 9 8 8 7
3 5 3 9 16 16 19 22 17 19 20 22 26 27 21 8 8 8 10 9 8 7 10 11 10 9 8 7 5 4 3 2 3 3 4 5 5 6 6 7 7 8 8 9
4 3 2 7 4 6 17 16 12 8 10 10 13 15 9 13 13 10 9 8 7 7 8 10 10 8 7 5 4 3 3 2 3 3 4 5 6 6 6 7 7 7 7 8
6 5 2 6 7 6 5 5 5 9 13 15 14 16 13 7 6 10 7 8 6 2 4 8 8 7 7 6 4 4 3 2 3 3 4 5 6 7 7 7 7 8 7 8
12 8 4 5 9 16 13 3 1 2 8 12 6 9 9 10 7 3 5 6 5 3 5 7 7 9 8 6 5 4 3 3 3 4 5 6 7 8 8 8 8 8 8 8
4 11 4 4 7 9 6 3 2 1 9 8 9 10 11 4 6 4 5 6 9 9 8 9 10 10 7 5 3 2 3 4 4 4 5 6 7 7 8 8 9 8 8 9
5 5 12 12 8 11 4 7 4 3 2 10 11 11 6 3 3 4 5 8 8 9 10 9 7 6 6 4 2 3 4 4 4 6 6 7 7 8 8 9 8 9 9 8
8 7 6 5 6 10 5 5 6 5 7 9 9 6 6 3 4 4 5 7 8 8 7 6 6 5 4 2 2 4 4 5 6 6 7 8 8 7 7 9 9 9 8 9
6 11 6 8 6 3 6 6 9 8 10 6 5 5 4 4 5 7 7 6 6 7 6 5 5 4 1 2 3 5 6 6 7 8 9 8 9 9 8 9 9 8 8 7
4 6 5 4 4 6 7 7 8 5 4 6 6 5 1 2 7 7 6 6 5 5 5 4 3 3 3 3 4 5 6 7 8 8 9 8 8 9 8 6 7 7 6 7
3 3 5 14 13 6 8 8 6 6 6 5 6 6 4 6 6 7 7 6 5 5 5 4 3 4 4 5 5 6 7 7 8 8 8 7 6 8 8 7 6 6 7 8
4 3 4 9 3 4 4 6 5 5 5 5 6 8 10 9 9 8 7 5 5 5 3 3 4 5 5 6 7 7 7 7 7 8 7 7 7 6 7 7 7 12 16 18
Wind_Direction
33 21 25 10 8 338 317 311 310 319 43 285 266 277 281 175 193 231 239 320 15 358 14 14 1 11 358 0 357 359 354 351 353 344 342 342 21 29 36 27 19 6 351 332
210 56 27 343 316 310 298 307 335 341 355 290 291 295 287 195 205 233 232 277 5 5 5 11 4 5 15 0 358 2 0 358 6 354 330 285 70 53 45 28 31 16 1 2
18 52 348 322 324 334 329 323 336 312 315 277 303 275 115 132 182 193 205 227 11 20 357 6 5 6 9 7 4 3 3 5 16 15 12 26 24 38 25 21 19 16 8 8
23 44 340 334 340 339 316 352 317 307 318 332 19 312 146 157 212 213 204 203 171 64 23 12 7 7 9 11 10 11 13 14 22 21 39 42 43 40 22 16 24 13 12 9
51 347 342 324 342 323 300 328 308 308 289 305 151 263 93 141 225 216 209 188 175 146 73 34 22 9 10 7 25 14 23 29 27 29 37 49 49 45 37 21 28 22 10 11
14 24 295 334 309 270 300 297 278 267 281 253 102 345 288 55 3 356 185 175 174 165 125 72 36 33 23 15 20 31 28 43 42 38 31 45 52 39 40 27 30 22 4 18
312 161 106 321 309 193 330 335 320 294 279 313 145 283 291 71 18 324 192 183 181 174 179 137 85 38 38 15 18 33 34 37 39 39 47 28 40 56 46 25 29 22 7 19
335 304 356 15 356 320 333 338 360 314 332 314 218 251 61 89 95 275 182 177 185 189 183 180 168 123 76 52 15 38 42 40 33 43 44 41 34 23 47 46 45 21 13 21
333 291 133 25 328 321 21 331 5 282 266 267 265 261 149 169 205 204 196 199 206 200 190 188 179 166 129 85 47 36 44 50 47 37 42 45 46 46 25 29 36 34 13 33
17 292 95 63 253 166 299 349 257 196 300 309 271 299 260 213 220 211 218 217 216 207 199 189 186 176 156 138 101 51 62 58 48 48 46 42 42 40 44 31 26 23 22 17
323 263 297 253 197 336 232 224 228 284 249 289 301 279 18 264 247 230 231 226 221 208 203 198 186 172 162 146 124 97 64 66 58 48 44 42 43 42 34 33 33 23 21 18
51 306 286 286 44 191 255 266 269 270 223 235 273 274 201 271 265 255 257 241 225 214 203 193 184 173 171 157 140 87 57 56 44 38 41 40 36 31 39 28 18 16 20 16
92 205 295 176 153 163 235 229 263 286 290 256 264 270 93 146 219 238 251 266 236 213 199 193 185 185 177 161 144 114 66 55 36 28 33 41 41 38 30 24 23 17 11 12
184 238 234 267 297 315 289 273 243 248 264 259 246 270 284 296 312 315 320 282 250 211 200 197 195 190 176 164 146 127 95 52 28 28 27 23 18 16 15 18 20 18 11 9
237 258 247 261 278 282 281 279 271 254 251 258 275 282 287 305 316 332 340 330 289 217 206 201 201 188 174 161 143 107 87 61 26 25 20 13 3 3 2 3 1 359 2 3
191 270 304 276 273 273 281 270 266 261 264 260 264 275 288 348 342 328 338 337 306 236 206 197 193 187 173 162 126 106 109 75 24 16 11 359 351 351 355 353 349 344 344 344
204 238 277 274 338 325 279 276 236 225 229 246 262 267 341 324 333 331 327 319 302 275 211 187 177 171 152 123 165 160 116 79 15 359 357 349 346 342 343 335 330 332 330 327
219 203 207 279 294 227 314 270 299 283 270 275 262 281 307 341 345 320 328 317 313 27 150 160 148 133 136 138 128 106 64 34 349 341 347 345 341 334 330 324 325 325 324 320
230 197 244 253 250 285 287 90 42 275 289 296 325 5 358 325 328 220 23 12 19 72 127 123 130 120 127 101 72 47 347 314 324 339 338 338 332 324 325 324 324 320 319 317
208 227 212 208 254 271 26 143 126 149 275 43 8 322 296 36 289 352 58 72 74 79 98 107 112 110 104 90 62 2 323 305 314 336 325 317 316 315 315 317 314 314 312 308
170 197 225 236 256 275 19 137 181 267 316 317 306 323 337 270 359 62 88 95 103 110 113 108 99 101 96 84 42 314 300 306 341 324 320 313 315 313 315 313 308 308 306 304
205 201 205 218 235 270 105 126 253 1 338 346 344 333 305 148 148 152 118 119 115 115 108 104 99 93 85 52 324 303 303 346 324 321 312 311 313 315 310 309 307 305 307 303
247 216 262 214 252 46 171 347 36 4 305 325 313 331 301 183 151 144 135 134 119 98 86 74 85 90 80 346 328 317 335 330 326 319 315 317 321 316 312 309 315 314 315 313
243 272 253 343 226 297 56 74 39 8 353 2 357 348 336 137 129 128 130 115 97 87 81 71 54 18 324 4 332 321 326 327 321 314 319 317 313 310 319 314 309 308 310 313
253 142 245 265 279 76 79 46 15 19 25 29 34 35 59 109 107 103 95 87 79 76 55 31 350 328 340 339 323 329 324 324 319 319 318 311 316 321 315 306 312 305 298 291
194 277 261 293 31 291 28 15 1 36 41 42 69 70 55 74 86 89 82 68 62 51 11 341 342 337 335 326 325 328 330 329 322 318 320 327 317 312 312 312 304 302 303 300